DCM228 EGAC-EGKB

Flight info

Callsign DCM228
Flight time N/A
Altitude 25000
Route DUFFY L10 RINGA Q39 ETIGA/N0460F330 DCT INKOB Q39 NOMSU UQ4 LISTO
Aircraft CL60/M-SBDE1E2E3FGHIJ1J4J5J7M3RWXYZ/LB1V1D1

Departure

Time 2026-05-04 20:36
Airport George Best Belfast City Airport (EGAC)

Arrival

Time N/A
Airport London Biggin Hill Airport (EGKB)
Time Latitude Longitude Altitude Speed Heading
2026-05-04 19:58 54.61601 -5.87910 19 ft 0 kts 133°
2026-05-04 20:27 54.61587 -5.87874 19 ft 8 kts 119°
2026-05-04 20:28 54.61576 -5.87844 19 ft 0 kts 125°
2026-05-04 20:28 54.61576 -5.87843 19 ft 0 kts 125°
2026-05-04 20:34 54.61570 -5.87829 19 ft 5 kts 132°
2026-05-04 20:34 54.61514 -5.87781 19 ft 12 kts 134°
2026-05-04 20:34 54.61484 -5.87645 19 ft 11 kts 57°
2026-05-04 20:35 54.61501 -5.87620 19 ft 0 kts 33°
2026-05-04 20:35 54.61680 -5.87408 19 ft 82 kts 34°
2026-05-04 20:35 54.62399 -5.86550 156 ft 158 kts 36°
2026-05-04 20:36 54.63334 -5.85379 974 ft 177 kts 35°
2026-05-04 20:36 54.64318 -5.84028 1919 ft 196 kts 35°
2026-05-04 20:36 54.65459 -5.82454 2635 ft 219 kts 35°
2026-05-04 20:36 54.66682 -5.80759 2935 ft 241 kts 36°
2026-05-04 20:37 54.68028 -5.78869 2930 ft 255 kts 37°
2026-05-04 20:37 54.69345 -5.76813 2933 ft 254 kts 48°
2026-05-04 20:37 54.70051 -5.74012 2969 ft 263 kts 81°
2026-05-04 20:37 54.69758 -5.70890 2990 ft 269 kts 115°
2026-05-04 20:38 54.68451 -5.68415 3270 ft 298 kts 150°
2026-05-04 20:38 54.66582 -5.66961 4879 ft 296 kts 158°
2026-05-04 20:38 54.64722 -5.65627 6651 ft 288 kts 159°
2026-05-04 20:38 54.62897 -5.64306 8189 ft 290 kts 159°
2026-05-04 20:39 54.61060 -5.62973 9568 ft 294 kts 159°
2026-05-04 20:39 54.59197 -5.61522 10945 ft 300 kts 152°
2026-05-04 20:39 54.57422 -5.59647 12264 ft 306 kts 149°
2026-05-04 20:39 54.55647 -5.57697 13471 ft 312 kts 149°
2026-05-04 20:40 54.53807 -5.55686 14618 ft 317 kts 149°
2026-05-04 20:40 54.51936 -5.53643 15700 ft 324 kts 148°
2026-05-04 20:40 54.50033 -5.51568 16741 ft 330 kts 148°
2026-05-04 20:40 54.48067 -5.49427 17734 ft 336 kts 148°
2026-05-04 20:41 54.46084 -5.47271 18499 ft 347 kts 148°
2026-05-04 20:41 54.44001 -5.45010 19072 ft 363 kts 148°
2026-05-04 20:41 54.41838 -5.42665 19812 ft 373 kts 148°
2026-05-04 20:41 54.39635 -5.40279 20672 ft 378 kts 148°
2026-05-04 20:42 54.37430 -5.37894 21519 ft 382 kts 148°
2026-05-04 20:42 54.35169 -5.35452 22342 ft 386 kts 148°
2026-05-04 20:42 54.32874 -5.32975 23152 ft 390 kts 148°
2026-05-04 20:42 54.30570 -5.30488 23898 ft 395 kts 148°
2026-05-04 20:43 54.28249 -5.27853 24655 ft 399 kts 141°
2026-05-04 20:43 54.26326 -5.24454 25378 ft 403 kts 129°
2026-05-04 20:43 54.24550 -5.20740 26063 ft 408 kts 129°
2026-05-04 20:43 54.22739 -5.16983 26735 ft 412 kts 129°
2026-05-04 20:44 54.20923 -5.13224 27387 ft 415 kts 129°
2026-05-04 20:44 54.19077 -5.09404 27992 ft 419 kts 129°
2026-05-04 20:44 54.17205 -5.05537 28591 ft 422 kts 129°
2026-05-04 20:44 54.15313 -5.01630 29149 ft 426 kts 129°
2026-05-04 20:45 54.13417 -4.97723 29687 ft 429 kts 129°
2026-05-04 20:45 54.11499 -4.93774 30218 ft 432 kts 129°
2026-05-04 20:45 54.09562 -4.89791 30742 ft 435 kts 129°
2026-05-04 20:45 54.07616 -4.85795 31202 ft 437 kts 129°
2026-05-04 20:46 54.05662 -4.81786 31641 ft 440 kts 129°
2026-05-04 20:46 54.03728 -4.77670 31985 ft 443 kts 126°
2026-05-04 20:46 54.01850 -4.73457 32238 ft 449 kts 126°
2026-05-04 20:46 53.99957 -4.69214 32482 ft 454 kts 126°
2026-05-04 20:47 53.98035 -4.64913 32743 ft 458 kts 126°
2026-05-04 20:47 53.96108 -4.60608 33005 ft 461 kts 126°
2026-05-04 20:47 53.92146 -4.51779 33061 ft 473 kts 126°
2026-05-04 20:48 53.88086 -4.42764 33071 ft 473 kts 126°
2026-05-04 20:48 53.84254 -4.33668 33072 ft 471 kts 123°
2026-05-04 20:49 53.80489 -4.24458 33072 ft 471 kts 123°
2026-05-04 20:49 53.76687 -4.15196 33072 ft 470 kts 123°
2026-05-04 20:50 53.72935 -4.06067 33071 ft 469 kts 122°
2026-05-04 20:50 53.69221 -3.97024 33069 ft 468 kts 122°
2026-05-04 20:51 53.65436 -3.87873 33068 ft 469 kts 122°
2026-05-04 20:51 53.61670 -3.78816 33068 ft 468 kts 122°
2026-05-04 20:52 53.57930 -3.69856 33067 ft 467 kts 122°
2026-05-04 20:52 53.54163 -3.60856 33065 ft 465 kts 122°
2026-05-04 20:53 53.50397 -3.51909 33066 ft 466 kts 122°
2026-05-04 20:53 53.46755 -3.42776 33064 ft 461 kts 114°
2026-05-04 20:54 53.44162 -3.32931 33054 ft 459 kts 110°
2026-05-04 20:54 53.41456 -3.23334 33056 ft 462 kts 118°
2026-05-04 20:55 53.37685 -3.14349 33055 ft 463 kts 123°
2026-05-04 20:55 53.34361 -3.06642 33058 ft 462 kts 123°
2026-05-04 20:56 53.30521 -2.97769 33059 ft 461 kts 123°
2026-05-04 20:56 53.26774 -2.89140 33059 ft 460 kts 123°
2026-05-04 20:57 53.23494 -2.81605 33068 ft 459 kts 122°
2026-05-04 20:57 53.19713 -2.72951 33056 ft 458 kts 123°
2026-05-04 20:58 53.15947 -2.64189 33073 ft 457 kts 122°
2026-05-04 20:58 53.12084 -2.55423 33055 ft 456 kts 123°
2026-05-04 20:59 53.08311 -2.46908 33046 ft 456 kts 123°
2026-05-04 20:59 53.04519 -2.38370 33054 ft 454 kts 122°
2026-05-04 21:00 53.00829 -2.30082 33049 ft 453 kts 123°
2026-05-04 21:00 52.97024 -2.21558 33048 ft 452 kts 123°
2026-05-04 21:01 52.93270 -2.13749 33040 ft 455 kts 130°
2026-05-04 21:01 52.88847 -2.06070 33036 ft 455 kts 131°
2026-05-04 21:02 52.84956 -1.99272 33037 ft 454 kts 128°
2026-05-04 21:02 52.81482 -1.90728 33051 ft 448 kts 115°
2026-05-04 21:03 52.78508 -1.81404 33060 ft 448 kts 115°
2026-05-04 21:03 52.76109 -1.73832 33067 ft 449 kts 115°
2026-05-04 21:04 52.73105 -1.64398 33067 ft 449 kts 115°
2026-05-04 21:04 52.70557 -1.56439 33061 ft 450 kts 115°
2026-05-04 21:05 52.67662 -1.47446 33064 ft 450 kts 116°
2026-05-04 21:05 52.64690 -1.38257 33055 ft 450 kts 115°
2026-05-04 21:06 52.61981 -1.29913 33056 ft 450 kts 116°
2026-05-04 21:06 52.59036 -1.20887 33054 ft 451 kts 117°
2026-05-04 21:07 52.56086 -1.11889 33044 ft 450 kts 117°
2026-05-04 21:07 52.53054 -1.02673 33036 ft 449 kts 117°
2026-05-04 21:08 52.50567 -0.95176 33055 ft 448 kts 118°
2026-05-04 21:08 52.47625 -0.86365 33039 ft 455 kts 120°
2026-05-04 21:09 52.44498 -0.77040 33041 ft 460 kts 120°
2026-05-04 21:09 52.41832 -0.69096 33004 ft 458 kts 120°
2026-05-04 21:10 52.40320 -0.64600 32647 ft 447 kts 120°
2026-05-04 21:10 52.38808 -0.60111 32046 ft 443 kts 120°
2026-05-04 21:10 52.37289 -0.55608 31470 ft 438 kts 120°
2026-05-04 21:10 52.35814 -0.51241 30877 ft 434 kts 120°
2026-05-04 21:11 52.34342 -0.46887 30296 ft 429 kts 120°
2026-05-04 21:11 52.32898 -0.42621 29723 ft 423 kts 120°
2026-05-04 21:11 52.31455 -0.38365 29160 ft 418 kts 120°
2026-05-04 21:11 52.30193 -0.34648 28668 ft 414 kts 121°
2026-05-04 21:12 52.28680 -0.30199 28062 ft 409 kts 121°
2026-05-04 21:12 52.27304 -0.26158 27518 ft 405 kts 121°
2026-05-04 21:12 52.26020 -0.22390 27008 ft 401 kts 121°
2026-05-04 21:12 52.24663 -0.18415 26478 ft 396 kts 121°
2026-05-04 21:13 52.23327 -0.14510 25966 ft 391 kts 121°
2026-05-04 21:13 52.22000 -0.10604 25423 ft 388 kts 122°
2026-05-04 21:13 52.20689 -0.06784 24933 ft 383 kts 122°
2026-05-04 21:13 52.19369 -0.02947 24404 ft 379 kts 122°
2026-05-04 21:14 52.18080 0.00797 23904 ft 375 kts 122°
2026-05-04 21:14 52.16775 0.04585 23394 ft 372 kts 122°
2026-05-04 21:14 52.15492 0.08303 22889 ft 368 kts 122°
2026-05-04 21:14 52.14220 0.11983 22393 ft 363 kts 122°
2026-05-04 21:15 52.13216 0.15769 21899 ft 362 kts 106°
2026-05-04 21:15 52.12810 0.19837 21557 ft 355 kts 99°
2026-05-04 21:15 52.12496 0.23764 21276 ft 346 kts 99°
2026-05-04 21:15 52.12174 0.27687 20962 ft 346 kts 99°
2026-05-04 21:16 52.11848 0.31623 20644 ft 347 kts 99°
2026-05-04 21:16 52.11522 0.35550 20332 ft 346 kts 99°
2026-05-04 21:16 52.11196 0.39455 20014 ft 344 kts 99°
2026-05-04 21:16 52.10867 0.43384 19715 ft 342 kts 99°
2026-05-04 21:17 52.10542 0.47244 19384 ft 339 kts 99°
2026-05-04 21:17 52.10158 0.51041 19084 ft 336 kts 101°
2026-05-04 21:17 52.09741 0.54849 18763 ft 334 kts 101°
2026-05-04 21:17 52.09333 0.58587 18463 ft 331 kts 101°
2026-05-04 21:18 52.08919 0.62360 18162 ft 330 kts 101°
2026-05-04 21:18 52.08538 0.65811 17870 ft 329 kts 102°
2026-05-04 21:18 52.08124 0.69555 17570 ft 327 kts 101°
2026-05-04 21:18 52.07709 0.73292 17269 ft 326 kts 101°
2026-05-04 21:19 52.07298 0.76983 16961 ft 324 kts 101°
2026-05-04 21:19 52.06888 0.80646 16680 ft 323 kts 101°
2026-05-04 21:19 52.06408 0.84024 16393 ft 320 kts 112°
2026-05-04 21:19 52.05448 0.87211 16097 ft 319 kts 119°
2026-05-04 21:20 52.04210 0.90270 15722 ft 316 kts 132°
2026-05-04 21:20 52.02676 0.92923 15351 ft 314 kts 134°
2026-05-04 21:20 52.01380 0.95146 15061 ft 313 kts 134°
2026-05-04 21:20 51.99848 0.97779 14701 ft 312 kts 134°
2026-05-04 21:21 51.98329 1.00393 14343 ft 311 kts 134°
2026-05-04 21:21 51.96836 1.02963 13996 ft 309 kts 133°
2026-05-04 21:21 51.95345 1.05531 13646 ft 308 kts 133°
2026-05-04 21:21 51.93859 1.08078 13295 ft 307 kts 133°
2026-05-04 21:22 51.92377 1.10620 12947 ft 306 kts 133°
2026-05-04 21:22 51.90925 1.13117 12603 ft 305 kts 133°
2026-05-04 21:22 51.89452 1.15650 12259 ft 304 kts 133°
2026-05-04 21:22 51.88005 1.18138 11948 ft 302 kts 133°
2026-05-04 21:23 51.86570 1.20597 11608 ft 300 kts 133°
2026-05-04 21:23 51.85518 1.22398 11373 ft 296 kts 133°
2026-05-04 21:23 51.84101 1.24824 11120 ft 288 kts 133°
2026-05-04 21:23 51.82732 1.27163 10876 ft 281 kts 133°
2026-05-04 21:24 51.81592 1.29111 10660 ft 277 kts 133°
2026-05-04 21:24 51.80263 1.31380 10399 ft 272 kts 133°
2026-05-04 21:24 51.78970 1.33582 10126 ft 267 kts 133°
2026-05-04 21:24 51.77687 1.35764 9847 ft 263 kts 133°
2026-05-04 21:25 51.76375 1.37790 9574 ft 258 kts 145°
2026-05-04 21:25 51.74750 1.38968 9295 ft 252 kts 169°
2026-05-04 21:25 51.72970 1.38993 9040 ft 248 kts 193°
2026-05-04 21:25 51.71308 1.37816 9006 ft 249 kts 217°
2026-05-04 21:26 51.70065 1.35837 8952 ft 251 kts 231°
2026-05-04 21:26 51.68958 1.33661 8746 ft 248 kts 231°
2026-05-04 21:26 51.67858 1.31508 8358 ft 249 kts 231°
2026-05-04 21:26 51.66752 1.29347 7983 ft 249 kts 231°
2026-05-04 21:27 51.65641 1.27182 7639 ft 248 kts 231°
2026-05-04 21:27 51.64531 1.25020 7315 ft 250 kts 231°
2026-05-04 21:27 51.63409 1.22839 7020 ft 246 kts 231°
2026-05-04 21:27 51.62306 1.20693 6654 ft 246 kts 231°
2026-05-04 21:28 51.61216 1.18576 6309 ft 244 kts 231°
2026-05-04 21:28 51.60125 1.16458 6005 ft 241 kts 231°
2026-05-04 21:28 51.59063 1.14398 5963 ft 243 kts 231°
2026-05-04 21:28 51.57971 1.12285 5962 ft 244 kts 231°
2026-05-04 21:29 51.56867 1.10150 5959 ft 245 kts 231°
2026-05-04 21:29 51.55761 1.08013 5959 ft 246 kts 231°
2026-05-04 21:29 51.54702 1.05967 5958 ft 246 kts 231°
2026-05-04 21:29 51.53593 1.03829 5961 ft 246 kts 231°
2026-05-04 21:30 51.52477 1.01678 5959 ft 246 kts 231°
2026-05-04 21:30 51.51390 0.99582 5960 ft 242 kts 231°
2026-05-04 21:30 51.50325 0.97525 5968 ft 236 kts 231°
2026-05-04 21:30 51.49258 0.95467 5961 ft 235 kts 231°
2026-05-04 21:31 51.47449 0.91186 5960 ft 231 kts 258°
2026-05-04 21:31 51.47234 0.88642 5964 ft 230 kts 265°
2026-05-04 21:31 51.47065 0.86084 5965 ft 230 kts 265°
2026-05-04 21:32 51.46888 0.83499 5964 ft 231 kts 265°
2026-05-04 21:32 51.46707 0.80902 5970 ft 231 kts 265°
2026-05-04 21:32 51.46520 0.78307 5954 ft 231 kts 264°
2026-05-04 21:32 51.46332 0.75708 5962 ft 232 kts 264°
2026-05-04 21:33 51.46144 0.73110 5902 ft 234 kts 264°
2026-05-04 21:33 51.45953 0.70474 5723 ft 233 kts 264°
2026-05-04 21:33 51.45767 0.67897 5544 ft 231 kts 264°
2026-05-04 21:33 51.45576 0.65267 5369 ft 230 kts 265°
2026-05-04 21:34 51.45390 0.62694 5194 ft 230 kts 265°
2026-05-04 21:34 51.45208 0.60187 5010 ft 230 kts 265°
2026-05-04 21:34 51.45032 0.57755 4763 ft 231 kts 265°
2026-05-04 21:34 51.44838 0.55105 4472 ft 229 kts 265°
2026-05-04 21:35 51.44669 0.52803 4219 ft 227 kts 265°
2026-05-04 21:35 51.44471 0.50115 3927 ft 226 kts 265°
2026-05-04 21:35 51.44288 0.47630 3800 ft 221 kts 265°
2026-05-04 21:35 51.44103 0.45122 3665 ft 226 kts 265°
2026-05-04 21:36 51.43918 0.42615 3551 ft 225 kts 265°
2026-05-04 21:36 51.43737 0.40165 3433 ft 221 kts 265°
2026-05-04 21:36 51.43554 0.37691 3330 ft 214 kts 266°
2026-05-04 21:36 51.43380 0.35347 3229 ft 208 kts 265°
2026-05-04 21:37 51.43212 0.33094 3113 ft 201 kts 265°
2026-05-04 21:37 51.43043 0.30869 3006 ft 199 kts 264°
2026-05-04 21:37 51.42754 0.29354 2985 ft 202 kts 245°
2026-05-04 21:37 51.42043 0.27418 2974 ft 203 kts 239°
2026-05-04 21:38 51.41520 0.26039 2971 ft 203 kts 240°
2026-05-04 21:38 51.40915 0.24430 2973 ft 202 kts 240°
2026-05-04 21:38 51.40473 0.23254 2966 ft 202 kts 240°